Date String (YYYY-MM-DD hh:mm:ss) UTC,Instrument flags,absolute air pressure of the measurement (hPa),sample flow rate (lpm),inlet stack bypass flow (lpm),air temperature of the measurement (°C),ambient temperature measured by the external sensor (°C),aerosol sample conditioner tube jacket temperature (°C),OPC LED temperature (°C),internal box temperature (°C),relative humidity of the measurement (%),span deviation,mass concentration of particles derived from Lorenz-Mie calculation of OPC scattering (μg/m³),mass concentration of particles derived from Lorenz-Mie calculation of OPC scattering (μg/m³),mass concentration of particles derived from Lorenz-Mie calculation of OPC scattering (μg/m³)
DateTimeUTC,F1_M11,P_M11,Q1_M11,Q2_M11,T1_M11,T2_M11,T3_M11,T4_M11,T5_M11,U1_M11,ZSPAN_M11,X0_M11,X2_M11,X1_M11
2023-06-20 00:00:00,SystemResetWarning,0823.8,5.01,000.00,029.2,024.8,000.0,037.5,030.8,23.7,0000.0,0014.74,0004.21,0003.28
2023-06-20 00:01:00,SystemResetWarning,0823.8,5.01,000.00,029.1,025.2,000.0,037.6,030.6,22.2,0000.0,0015.15,0004.25,0003.28
2023-06-20 00:02:00,SystemResetWarning,0823.8,5.00,000.00,029.1,025.7,000.0,037.6,030.6,22.0,0000.0,0016.43,0004.26,0003.27
2023-06-20 00:03:00,SystemResetWarning,0823.8,5.01,000.00,029.1,026.3,000.0,037.6,030.7,22.0,0000.0,0016.69,0004.27,0003.26
2023-06-20 00:04:00,SystemResetWarning,0823.8,5.00,000.00,029.1,026.7,000.0,037.6,030.8,23.0,0000.0,0016.58,0004.28,0003.25
2023-06-20 00:05:00,SystemResetWarning,0823.8,4.99,000.00,029.2,027.1,000.0,037.6,030.9,23.3,0000.0,0017.02,0004.31,0003.25
2023-06-20 00:06:00,SystemResetWarning,0823.8,4.99,000.00,029.2,027.5,000.0,037.6,031.0,22.5,0000.0,0016.33,0004.33,0003.24
2023-06-20 00:07:00,SystemResetWarning,0823.9,5.00,000.00,029.3,027.8,000.0,037.7,031.1,23.3,0000.0,0015.64,0004.37,0003.25
2023-06-20 00:08:00,SystemResetWarning,0823.8,4.99,000.00,029.3,027.3,000.0,037.7,031.1,23.0,0000.0,0015.80,0004.38,0003.25
2023-06-20 00:09:00,SystemResetWarning,0823.8,4.99,000.00,029.3,025.2,000.0,037.6,030.9,24.1,0000.0,0015.30,0004.39,0003.26
2023-06-20 00:10:00,SystemResetWarning,0823.8,5.01,000.00,029.2,024.5,000.0,037.6,030.8,24.0,0000.0,0015.25,0004.40,0003.25
2023-06-20 00:11:00,SystemResetWarning,0823.8,5.01,000.00,029.2,024.9,000.0,037.6,030.6,23.4,0000.0,0016.15,0004.41,0003.25
2023-06-20 00:12:00,SystemResetWarning,0823.8,5.00,000.00,029.1,025.4,000.0,037.6,030.6,23.7,0000.0,0018.64,0004.42,0003.25
2023-06-20 00:13:00,SystemResetWarning,0823.8,5.01,000.00,029.1,025.9,000.0,037.6,030.7,23.6,0000.0,0017.95,0004.45,0003.25
2023-06-20 00:14:00,SystemResetWarning,0823.9,5.00,000.00,029.1,026.4,000.0,037.6,030.8,24.3,0000.0,0018.19,0004.45,0003.26
2023-06-20 00:15:00,SystemResetWarning,0823.9,5.00,000.00,029.2,026.9,000.0,037.6,030.9,25.3,0000.0,0019.67,0004.45,0003.27
2023-06-20 00:16:00,SystemResetWarning,0823.9,5.00,000.00,029.2,027.3,000.0,037.6,031.0,26.5,0000.0,0020.38,0004.45,0003.28
2023-06-20 00:17:00,SystemResetWarning,0823.9,4.99,000.00,029.3,027.6,000.0,037.7,031.1,25.0,0000.0,0021.16,0004.42,0003.29
2023-06-20 00:18:00,SystemResetWarning,0823.9,4.99,000.00,029.3,027.4,000.0,037.7,031.1,26.1,0000.0,0021.36,0004.39,0003.28
2023-06-20 00:19:00,SystemResetWarning,0823.9,5.00,000.00,029.3,025.5,000.0,037.6,030.8,26.7,0000.0,0020.68,0004.35,0003.28
2023-06-20 00:20:00,SystemResetWarning,0823.8,5.01,000.00,029.2,024.5,000.0,037.6,030.7,27.0,0000.0,0020.17,0004.34,0003.28
2023-06-20 00:21:00,SystemResetWarning,0823.9,5.01,000.00,029.2,024.9,000.0,037.5,030.7,25.8,0000.0,0019.20,0004.30,0003.27
2023-06-20 00:22:00,SystemResetWarning,0823.9,4.99,000.00,029.1,025.3,000.0,037.6,030.6,26.5,0000.0,0019.23,0004.27,0003.26
2023-06-20 00:23:00,SystemResetWarning,0823.9,5.00,000.00,029.1,025.8,000.0,037.6,030.6,26.5,0000.0,0017.09,0004.24,0003.26
2023-06-20 00:24:00,SystemResetWarning,0823.9,5.01,000.00,029.1,026.3,000.0,037.6,030.8,25.5,0000.0,0015.21,0004.16,0003.26
2023-06-20 00:25:00,SystemResetWarning,0824.0,5.00,000.00,029.1,026.8,000.0,037.6,030.9,25.7,0000.0,0015.31,0004.17,0003.25
2023-06-20 00:26:00,SystemResetWarning,0824.0,4.99,000.00,029.2,027.2,000.0,037.6,031.0,25.9,0000.0,0015.04,0004.16,0003.25
2023-06-20 00:27:00,SystemResetWarning,0824.0,5.01,000.00,029.2,027.5,000.0,037.6,031.0,26.0,0000.0,0014.47,0004.14,0003.24
2023-06-20 00:28:00,SystemResetWarning,0824.0,5.00,000.00,029.3,027.8,000.0,037.7,031.1,27.6,0000.0,0013.47,0004.14,0003.23
2023-06-20 00:29:00,SystemResetWarning,0824.0,4.99,000.00,029.3,026.9,000.0,037.6,031.0,28.5,0000.0,0013.06,0004.18,0003.23
2023-06-20 00:30:00,SystemResetWarning,0823.9,5.00,000.00,029.3,025.0,000.0,037.6,030.7,25.8,0000.0,0013.82,0004.23,0003.24
2023-06-20 00:31:00,SystemResetWarning,0823.9,5.01,000.00,029.2,024.6,000.0,037.6,030.8,26.1,0000.0,0015.43,0004.28,0003.24
2023-06-20 00:32:00,SystemResetWarning,0823.9,5.01,000.00,029.2,025.0,000.0,037.6,030.6,27.3,0000.0,0016.29,0004.32,0003.25
2023-06-20 00:33:00,SystemResetWarning,0824.0,4.99,000.00,029.1,025.5,000.0,037.6,030.6,30.2,0000.0,0016.00,0004.37,0003.27
2023-06-20 00:34:00,SystemResetWarning,0824.0,5.00,000.00,029.1,026.0,000.0,037.6,030.7,29.1,0000.0,0016.04,0004.44,0003.28
2023-06-20 00:35:00,SystemResetWarning,0824.0,5.01,000.00,029.1,026.5,000.0,037.6,030.8,25.3,0000.0,0016.39,0004.48,0003.29
2023-06-20 00:36:00,SystemResetWarning,0824.0,5.00,000.00,029.2,027.0,000.0,037.6,030.9,25.5,0000.0,0016.00,0004.47,0003.29
2023-06-20 00:37:00,SystemResetWarning,0824.0,4.99,000.00,029.2,027.3,000.0,037.6,031.0,25.7,0000.0,0014.90,0004.44,0003.29
2023-06-20 00:38:00,SystemResetWarning,0824.0,4.99,000.00,029.3,027.7,000.0,037.7,031.1,25.6,0000.0,0014.40,0004.47,0003.30
2023-06-20 00:39:00,SystemResetWarning,0824.0,4.99,000.00,029.3,027.1,000.0,037.7,031.1,25.7,0000.0,0014.82,0004.50,0003.31
2023-06-20 00:40:00,SystemResetWarning,0824.0,5.00,000.00,029.3,025.2,000.0,037.6,030.7,26.4,0000.0,0015.74,0004.51,0003.32
2023-06-20 00:41:00,SystemResetWarning,0823.9,5.02,000.00,029.2,024.5,000.0,037.6,030.7,24.8,0000.0,0015.40,0004.50,0003.33
2023-06-20 00:42:00,SystemResetWarning,0824.0,5.00,000.00,029.2,024.9,000.0,037.5,030.6,25.9,0000.0,0014.79,0004.48,0003.33
2023-06-20 00:43:00,SystemResetWarning,0823.9,5.00,000.00,029.1,025.4,000.0,037.6,030.6,26.0,0000.0,0014.91,0004.46,0003.33
2023-06-20 00:44:00,SystemResetWarning,0824.0,5.00,000.00,029.1,025.9,000.0,037.6,030.6,25.3,0000.0,0015.22,0004.47,0003.34
2023-06-20 00:45:00,SystemResetWarning,0824.0,5.00,000.00,029.1,026.4,000.0,037.6,030.7,23.8,0000.0,0015.10,0004.44,0003.34
2023-06-20 00:46:00,SystemResetWarning,0824.0,4.99,000.00,029.2,026.9,000.0,037.6,030.8,25.3,0000.0,0015.36,0004.47,0003.34
2023-06-20 00:47:00,SystemResetWarning,0824.0,4.99,000.00,029.2,027.3,000.0,037.6,030.9,25.2,0000.0,0015.24,0004.50,0003.35
2023-06-20 00:48:00,SystemResetWarning,0824.0,5.00,000.00,029.3,027.7,000.0,037.6,031.0,26.6,0000.0,0014.95,0004.57,0003.37
2023-06-20 00:49:00,SystemResetWarning,0824.0,4.99,000.00,029.3,027.3,000.0,037.6,031.1,25.3,0000.0,0015.65,0004.57,0003.38
2023-06-20 00:50:00,SystemResetWarning,0824.0,5.00,000.00,029.3,025.4,000.0,037.6,030.8,25.0,0000.0,0016.03,0004.59,0003.38
2023-06-20 00:51:00,SystemResetWarning,0824.0,5.01,000.00,029.2,024.5,000.0,037.5,030.8,26.3,0000.0,0015.20,0004.62,0003.38
2023-06-20 00:52:00,SystemResetWarning,0824.0,5.02,000.00,029.2,024.8,000.0,037.5,030.7,26.4,0000.0,0016.42,0004.65,0003.38
2023-06-20 00:53:00,SystemResetWarning,0824.0,4.99,000.00,029.1,025.3,000.0,037.5,030.6,27.1,0000.0,0016.55,0004.67,0003.39
2023-06-20 00:54:00,SystemResetWarning,0824.0,5.01,000.00,029.1,025.8,000.0,037.6,030.7,27.2,0000.0,0015.97,0004.65,0003.39
2023-06-20 00:55:00,SystemResetWarning,0824.0,5.01,000.00,029.1,026.3,000.0,037.6,030.8,25.7,0000.0,0016.08,0004.63,0003.39
2023-06-20 00:56:00,SystemResetWarning,0824.0,5.00,000.00,029.1,026.8,000.0,037.6,030.9,24.8,0000.0,0016.88,0004.61,0003.39
2023-06-20 00:57:00,SystemResetWarning,0824.0,4.99,000.00,029.2,027.2,000.0,037.6,030.9,25.7,0000.0,0016.81,0004.59,0003.39
2023-06-20 00:58:00,SystemResetWarning,0824.1,5.00,000.00,029.2,027.5,000.0,037.6,031.0,25.2,0000.0,0016.89,0004.55,0003.38
2023-06-20 00:59:00,SystemResetWarning,0824.2,5.00,000.00,029.3,027.8,000.0,037.7,031.1,25.6,0000.0,0017.29,0004.56,0003.38
